Location: Clinton NY
(43.0598°N, 75.3602°W)
Time: 06:12:42
(UTC-05:00)

Amateur Radio Satellites - All Passes

Search period start: 02 March 2015 05:42
Search period end: 03 March 2015 05:42
Location: Clinton NY, 43.0598°N, 75.3602°W

Satellite Date Start Highest point End Downlink Frequencies (MHz)
Time Altitude Azimuth
CUTE-I 02 Mar 05:45:44 05:50:32 33° 95° (E) 05:55:22 437.470
JAS-2 02 Mar 05:57:09 06:03:37 34° 295° (WNW) 06:10:19 435.910
PRISM 02 Mar 05:57:26 06:01:31 59° 259° (W) 06:05:40 437.425
YUBILEINY 02 Mar 06:01:48 06:03:54 11° 287° (WNW) 06:05:15 435.215
PCSat 02 Mar 06:10:55 06:16:20 66° 243° (WSW) 06:21:41 145.827
STRAND 1 02 Mar 06:19:04 06:24:12 71° 258° (WSW) 06:29:23 437.568
AO-7 02 Mar 06:19:23 06:26:00 27° 306° (NW) 06:32:24 29.400- 29.500
CUBESAT XI-V 02 Mar 06:31:29 06:35:43 33° 265° (W) 06:39:57 437.345
Cubesat XI-IV 02 Mar 07:16:28 07:21:29 40° 291° (WNW) 07:26:26 437.490
RS-15 02 Mar 07:18:11 07:29:17 56° 45° (NE) 07:40:56 29.354- 29.394
AIST 1 02 Mar 07:20:00 07:24:21 80° 277° (W) 07:28:47
CUTE-I 02 Mar 07:25:48 07:30:38 34° 293° (WNW) 07:35:22 437.470
AAUSAT CUBESAT 2 02 Mar 08:07:12 08:09:11 13° 89° (E) 08:11:22 437.432
COMPASS 1 02 Mar 08:08:48 08:11:23 16° 90° (E) 08:14:07 437.405
BRITE-PL 02 Mar 08:09:23 08:13:41 39° 96° (E) 08:17:44 437.365/2234.400
GONETS M04 02 Mar 08:12:03 08:20:17 44° 72° (ENE) 08:28:36
GOMX 1 02 Mar 08:17:32 08:21:26 30° 94° (E) 08:25:11 467.674
HO-68 02 Mar 08:20:06 08:26:47 41° 97° (E) 08:33:31 435.675
ISS 02 Mar 08:27:34 08:30:04 21° 136° (SE) 08:32:38 145.825
TIGRISAT 02 Mar 08:28:41 08:30:28 13° 63° (ENE) 08:32:25 435.000
SEEDS 02 Mar 08:34:16 08:38:11 37° 97° (E) 08:42:08 437.485
CANX-2 02 Mar 08:36:22 08:40:31 51° 99° (E) 08:44:41 2200.000
ANTELSAT 02 Mar 08:40:49 08:43:36 17° 65° (ENE) 08:46:30 437.575/2403.000
DUCHIFAT 1 02 Mar 08:49:58 08:51:24 12° 62° (ENE) 08:53:01 145.980
O/OREOS (USA 219) 02 Mar 08:52:19 08:56:28 36° 106° (ESE) 09:00:41 437.305
DOVE 4 02 Mar 08:54:59 08:59:12 53° 99° (E) 09:03:17 437.250
CUTE 1.7 + AOD 2 02 Mar 08:55:00 08:59:16 76° 101° (E) 09:03:31 437.475
UWE-3 02 Mar 08:57:04 08:59:03 13° 89° (E) 09:01:13 435.000/436.395/437.385
SO-50 02 Mar 09:01:58 09:05:44 22° 39° (NE) 09:09:35 436.795
CINEMA 3 02 Mar 09:07:27 09:11:21 37° 97° (E) 09:15:14 145.822/145.860
POLYITAN 1 02 Mar 09:07:50 09:10:46 19° 66° (ENE) 09:13:48 437.675
POPSAT HIP 1 02 Mar 09:08:39 09:11:35 19° 66° (ENE) 09:14:37 437.405
DELFI C3 02 Mar 09:17:15 09:20:51 29° 96° (E) 09:24:28 145.870
Oscar 11 02 Mar 09:29:14 09:33:28 51° 99° (E) 09:37:42 145.826/435.025
RS-15 02 Mar 09:30:52 09:41:46 50° 248° (WSW) 09:52:55 29.354- 29.394
NANOSAT C BR1 02 Mar 09:31:07 09:34:52 31° 69° (ENE) 09:38:40 145.865
CUBEBUG 2 02 Mar 09:31:54 09:35:49 39° 98° (E) 09:39:43 437.445
UNISAT 6 02 Mar 09:37:00 09:41:22 64° 74° (ENE) 09:45:41 437.425
AAUSAT CUBESAT 2 02 Mar 09:41:08 09:45:14 54° 287° (WNW) 09:49:19 437.432
COMPASS 1 02 Mar 09:43:21 09:47:22 44° 288° (WNW) 09:51:23 437.405
BRITE-PL 02 Mar 09:48:29 09:51:59 21° 295° (WNW) 09:55:13 437.365/2234.400
DX 1 02 Mar 09:52:35 09:56:45 42° 99° (E) 10:00:54 434.975-435.025
AISAT 02 Mar 09:54:05 09:57:11 19° 91° (E) 10:00:24 437.250
GOMX 1 02 Mar 09:55:53 09:59:29 24° 293° (WNW) 10:02:54 467.674
TIGRISAT 02 Mar 10:02:21 10:06:46 70° 258° (WSW) 10:11:06 435.000
ISS 02 Mar 10:03:09 10:06:18 50° 332° (NNW) 10:09:29 145.825
QB50P1 02 Mar 10:03:13 10:07:29 69° 75° (ENE) 10:11:46 145.935-145.965
VELOX 1 02 Mar 10:03:34 10:07:04 23° 93° (E) 10:10:39 145.980
QB50P2 02 Mar 10:06:51 10:11:08 78° 75° (ENE) 10:15:26 145.880/145.840
HO-68 02 Mar 10:07:53 10:14:33 42° 296° (WNW) 10:21:08 435.675
GONETS M04 02 Mar 10:09:03 10:17:10 43° 272° (W) 10:25:11
SEEDS 02 Mar 10:10:38 10:13:49 20° 293° (WNW) 10:16:54 437.485
FUNcube-1 02 Mar 10:12:48 10:16:58 77° 102° (ESE) 10:21:08 145.935
CANX-2 02 Mar 10:13:30 10:16:07 16° 295° (WNW) 10:18:35 2200.000
ZACube-1 02 Mar 10:13:51 10:18:01 81° 102° (ESE) 10:22:11 437.345
ANTELSAT 02 Mar 10:15:50 10:20:07 48° 261° (W) 10:24:20 437.575/2403.000
BUGSAT 1 02 Mar 10:16:22 10:20:37 72° 76° (ENE) 10:24:54 437.445
ESTCUBE 1 02 Mar 10:17:34 10:20:24 17° 90° (E) 10:23:24 437.505/2401.250
HUMSAT D 02 Mar 10:21:22 10:25:22 49° 99° (E) 10:29:23 437.325/437.525
DUCHIFAT 1 02 Mar 10:22:26 10:26:43 74° 258° (WSW) 10:31:01 145.980
UKube-1 02 Mar 10:22:43 10:27:06 86° 103° (ESE) 10:31:27 .
50 SAT 02 Mar 10:24:05 10:27:45 36° 97° (E) 10:31:26 437.505
UWE-3 02 Mar 10:31:58 10:36:01 51° 286° (WNW) 10:40:03 435.000/436.395/437.385
O/OREOS (USA 219) 02 Mar 10:32:10 10:36:00 25° 304° (NW) 10:39:47 437.305
CUTE 1.7 + AOD 2 02 Mar 10:33:18 10:34:40 11° 298° (WNW) 10:35:49 437.475
DOVE 4 02 Mar 10:34:08 10:36:35 15° 297° (WNW) 10:38:50 437.250
SO-50 02 Mar 10:41:52 10:46:48 69° 239° (WSW) 10:51:40 436.795
POLYITAN 1 02 Mar 10:42:19 10:46:26 43° 262° (W) 10:50:32 437.675
POPSAT HIP 1 02 Mar 10:43:06 10:47:12 43° 262° (W) 10:51:19 437.405
CINEMA 3 02 Mar 10:45:21 10:48:22 19° 294° (WNW) 10:51:15 145.822/145.860
DANDE 02 Mar 10:52:29 10:55:08 42° 76° (ENE) 10:57:37 436.750
DELFI C3 02 Mar 10:52:38 10:55:58 23° 291° (WNW) 10:59:11 145.870
Oscar 11 02 Mar 11:06:33 11:09:17 16° 295° (WNW) 11:11:52 145.826/435.025
NANOSAT C BR1 02 Mar 11:07:14 11:10:47 24° 266° (W) 11:14:16 145.865
CUBEBUG 2 02 Mar 11:09:21 11:12:17 18° 294° (WNW) 11:15:07 437.445
UNISAT 6 02 Mar 11:16:49 11:18:40 12° 272° (W) 11:20:17 437.425
CUSAT 1 02 Mar 11:25:15 11:27:37 29° 264° (W) 11:29:58 437.405
DX 1 02 Mar 11:29:33 11:32:45 20° 295° (WNW) 11:35:49 434.975-435.025
AISAT 02 Mar 11:29:49 11:34:03 42° 289° (WNW) 11:38:12 437.250
CUBEBUG 1 02 Mar 11:34:47 11:39:14 85° 284° (WNW) 11:43:37 437.445
VELOX 1 02 Mar 11:39:42 11:43:46 35° 290° (WNW) 11:47:46 145.980
ISS 02 Mar 11:40:52 11:43:17 19° 352° (N) 11:45:42 145.825
QB50P1 02 Mar 11:42:41 11:43:56 11° 273° (W) 11:44:56 145.935-145.965
FUNcube-1 02 Mar 11:51:56 11:52:48 10° 298° (WNW) 11:53:26 145.935
ESTCUBE 1 02 Mar 11:53:12 11:57:39 51° 287° (WNW) 12:02:02 437.505/2401.250
BUGSAT 1 02 Mar 11:55:46 11:56:42 10° 273° (W) 11:57:21 437.445
ITAMSAT 1 02 Mar 11:58:12 12:00:47 14° 59° (ENE) 12:03:37 435.822/435.867
HUMSAT D 02 Mar 11:58:22 12:00:49 15° 295° (WNW) 12:03:06 437.325/437.525
Oscar 19 02 Mar 11:58:25 12:03:05 37° 69° (ENE) 12:07:49 437.125/150
50 SAT 02 Mar 11:59:45 12:02:33 18° 293° (WNW) 12:05:13 437.505
UKube-1 02 Mar 12:01:45 12:02:39 10° 300° (WNW) 12:03:20 .
SPROUT 02 Mar 12:08:49 12:13:05 58° 100° (E) 12:17:18 437.525
TISAT 1 02 Mar 12:14:23 12:18:35 59° 101° (E) 12:22:45 437.305
ITUPSAT 1 02 Mar 12:18:20 12:18:23 10° 86° (E) 12:18:47 437.325
Gurwin Techsat 1B 02 Mar 13:04:49 13:09:43 40° 69° (ENE) 13:14:41 435.225
HORYU 2 02 Mar 13:11:49 13:13:00 11° 61° (ENE) 13:14:25 437.375
SWISSCUBE 02 Mar 13:16:30 13:21:08 45° 99° (E) 13:25:45 437.505
ISS 02 Mar 13:17:58 13:20:31 21° 12° (NNE) 13:23:04 145.825
BEESAT 02 Mar 13:25:10 13:29:52 51° 100° (E) 13:34:32 436.000
ITAMSAT 1 02 Mar 13:34:26 13:39:39 85° 254° (WSW) 13:44:57 435.822/435.867
AO-7 02 Mar 13:34:57 13:41:31 28° 55° (NE) 13:48:18 29.400- 29.500
Oscar 19 02 Mar 13:38:08 13:42:33 28° 266° (W) 13:46:54 437.125/150
KKS-1 02 Mar 13:43:52 13:46:23 15° 90° (E) 13:49:05 437.445
SPROUT 02 Mar 13:46:21 13:48:45 14° 296° (WNW) 13:51:00 437.525
TISAT 1 02 Mar 13:51:44 13:53:58 14° 297° (WNW) 13:56:01 437.305
STARS 02 Mar 13:52:02 13:53:25 12° 88° (E) 13:55:03 437.465
ITUPSAT 1 02 Mar 13:52:13 13:57:05 88° 290° (WNW) 14:01:55 437.325
JAS-2 02 Mar 14:26:49 14:31:06 24° 60° (ENE) 14:35:53 435.910
HORYU 2 02 Mar 14:44:38 14:49:05 83° 257° (WSW) 14:53:32 437.375
Gurwin Techsat 1B 02 Mar 14:45:18 14:49:51 28° 266° (W) 14:54:19 435.225
ISS 02 Mar 14:54:09 14:57:24 68° 32° (NNE) 15:00:37 145.825
SWISSCUBE 02 Mar 14:55:03 14:58:44 22° 295° (WNW) 15:02:19 437.505
BEESAT 02 Mar 15:03:55 15:07:23 20° 296° (WNW) 15:10:43 436.000
YUBILEINY 02 Mar 15:06:24 15:13:49 34° 85° (E) 15:21:29 435.215
KKS-1 02 Mar 15:19:06 15:23:26 52° 288° (WNW) 15:27:44 437.445
ITAMSAT 1 02 Mar 15:19:19 15:20:06 10° 275° (W) 15:20:30 435.822/435.867
AO-7 02 Mar 15:25:18 15:33:41 76° 254° (WSW) 15:42:02 29.400- 29.500
STARS 02 Mar 15:26:04 15:30:27 68° 286° (WNW) 15:34:47 437.465
ITUPSAT 1 02 Mar 15:32:35 15:34:20 12° 301° (WNW) 15:35:50 437.325
M-CUBED/EXP-1 PRIME 02 Mar 16:08:17 16:12:05 32° 102° (ESE) 16:16:11 437.505
JAS-2 02 Mar 16:10:23 16:15:45 55° 262° (W) 16:21:45 435.910
AUBIESAT-1 02 Mar 16:10:31 16:14:16 30° 102° (ESE) 16:18:19 437.475
BEESAT 3 02 Mar 16:11:09 16:13:21 15° 111° (ESE) 16:15:42 437.485
MOZHAYETS 4 02 Mar 16:28:23 16:32:49 43° 98° (E) 16:37:15
ISS 02 Mar 16:31:28 16:33:30 15° 227° (SW) 16:35:28 145.825
BEESAT 2 02 Mar 16:35:18 16:38:30 22° 114° (ESE) 16:41:48 435.950
Cubesat XI-IV 02 Mar 16:59:27 17:04:37 50° 71° (ENE) 17:09:51 437.490
YUBILEINY 02 Mar 17:01:46 17:10:19 55° 285° (WNW) 17:18:55 435.215
CUTE-I 02 Mar 17:08:23 17:13:38 60° 72° (ENE) 17:18:58 437.470
AO-7 02 Mar 17:23:32 17:28:03 15° 275° (W) 17:32:00 29.400- 29.500
O/OREOS (USA 219) 02 Mar 17:23:50 17:25:18 11° 46° (NE) 17:26:58 437.305
AIST 1 02 Mar 17:26:42 17:30:28 27° 73° (ENE) 17:34:16
VERMONT LUNAR 02 Mar 17:36:59 17:39:56 26° 158° (SSE) 17:42:54 437.305
PRISM 02 Mar 17:40:08 17:42:59 18° 92° (E) 17:45:58 437.425
PHONESAT 2.4 02 Mar 17:40:08 17:42:33 17° 152° (SSE) 17:45:02 2401.200-2431.200
M-CUBED/EXP-1 PRIME 02 Mar 17:43:22 17:46:56 27° 296° (WNW) 17:50:41 437.505
AUBIESAT-1 02 Mar 17:45:26 17:49:05 28° 295° (WNW) 17:52:54 437.475
BEESAT 3 02 Mar 17:46:59 17:51:02 57° 307° (NW) 17:55:08 437.485
MOZHAYETS 4 02 Mar 18:06:17 18:09:48 21° 294° (WNW) 18:13:11
AIST 2 02 Mar 18:08:36 18:12:51 80° 123° (ESE) 18:17:10 435.215
BEESAT 2 02 Mar 18:12:36 18:16:30 38° 311° (NW) 18:20:26 435.950
CUBESAT XI-V 02 Mar 18:26:44 18:31:25 59° 100° (E) 18:36:03 437.345
STRAND 1 02 Mar 18:28:54 18:33:38 36° 96° (E) 18:38:23 437.568
Cubesat XI-IV 02 Mar 18:40:52 18:45:04 22° 269° (W) 18:49:08 437.490
HO-68 02 Mar 18:49:58 18:56:12 35° 62° (ENE) 19:02:33 435.675
CUTE-I 02 Mar 18:50:25 18:54:13 19° 270° (W) 18:57:50 437.470
AAUSAT CUBESAT 2 02 Mar 19:00:37 19:01:49 11° 63° (ENE) 19:03:14 437.432
O/OREOS (USA 219) 02 Mar 19:00:57 19:05:35 83° 65° (ENE) 19:10:10 437.305
COMPASS 1 02 Mar 19:02:15 19:04:15 14° 64° (ENE) 19:06:26 437.405
AIST 1 02 Mar 19:04:21 19:08:06 26° 270° (W) 19:11:45
YUBILEINY 02 Mar 19:07:11 19:09:50 11° 311° (NW) 19:11:50 435.215
PCSat 02 Mar 19:13:24 19:15:48 13° 105° (ESE) 19:18:31 145.827
VERMONT LUNAR 02 Mar 19:14:06 19:17:31 54° 175° (S) 19:20:57 437.305
PRISM 02 Mar 19:14:43 19:18:43 41° 289° (WNW) 19:22:40 437.425
PHONESAT 2.4 02 Mar 19:17:04 19:20:34 45° 168° (SSE) 19:24:03 2401.200-2431.200
BRITE-PL 02 Mar 19:19:43 19:25:13 56° 73° (ENE) 19:30:31 437.365/2234.400
GOMX 1 02 Mar 19:25:30 19:30:33 43° 72° (ENE) 19:35:25 467.674
SEEDS 02 Mar 19:27:39 19:31:17 30° 70° (ENE) 19:34:58 437.485
BEESAT 3 02 Mar 19:29:21 19:30:05 10° 328° (NNW) 19:30:40 437.485
CANX-2 02 Mar 19:30:23 19:34:20 41° 72° (ENE) 19:38:19 2200.000
CUTE 1.7 + AOD 2 02 Mar 19:48:47 19:52:55 60° 74° (ENE) 19:57:06 437.475
AIST 2 02 Mar 19:49:19 19:52:03 16° 322° (NW) 19:54:41 435.215
UWE-3 02 Mar 19:55:39 19:58:00 15° 65° (ENE) 20:00:31 435.000/436.395/437.385
DOVE 4 02 Mar 20:00:39 20:05:45 65° 75° (ENE) 20:10:37 437.250
CUBESAT XI-V 02 Mar 20:05:24 20:08:26 17° 296° (WNW) 20:11:19 437.345
DELFI C3 02 Mar 20:06:44 20:09:49 22° 68° (ENE) 20:12:59 145.870
STRAND 1 02 Mar 20:08:18 20:12:45 29° 294° (WNW) 20:17:06 437.568
CINEMA 3 02 Mar 20:09:45 20:14:15 43° 72° (ENE) 20:18:36 145.822/145.860
Oscar 11 02 Mar 20:24:56 20:29:01 45° 72° (ENE) 20:33:08 145.826/435.025
CUBEBUG 2 02 Mar 20:31:00 20:35:12 39° 72° (ENE) 20:39:18 437.445
AAUSAT CUBESAT 2 02 Mar 20:32:51 20:36:58 71° 258° (WSW) 20:41:08 437.432
COMPASS 1 02 Mar 20:35:28 20:39:33 57° 260° (W) 20:43:41 437.405
HO-68 02 Mar 20:36:51 20:43:45 50° 260° (W) 20:50:40 435.675
DX 1 02 Mar 20:49:04 20:53:11 42° 71° (ENE) 20:57:22 434.975-435.025
VERMONT LUNAR 02 Mar 20:51:53 20:55:15 45° 191° (S) 20:58:35 437.305
PCSat 02 Mar 20:53:09 20:58:35 85° 304° (WNW) 21:04:03 145.827
AISAT 02 Mar 20:53:11 20:56:30 21° 66° (ENE) 20:59:54 437.250
PHONESAT 2.4 02 Mar 20:55:15 20:58:49 56° 185° (S) 21:02:23 2401.200-2431.200
BRITE-PL 02 Mar 20:59:44 21:04:02 21° 269° (W) 21:08:05 437.365/2234.400
CUBEBUG 1 02 Mar 20:59:44 21:00:20 10° 61° (ENE) 21:01:11 437.445
VELOX 1 02 Mar 21:02:23 21:05:59 25° 67° (ENE) 21:09:39 145.980
SEEDS 02 Mar 21:03:42 21:07:09 24° 267° (W) 21:10:31 437.485
GOMX 1 02 Mar 21:04:22 21:08:50 25° 267° (W) 21:13:02 467.674
CANX-2 02 Mar 21:07:37 21:10:31 17° 269° (W) 21:13:18 2200.000
FUNcube-1 02 Mar 21:09:23 21:13:43 68° 75° (ENE) 21:17:58 145.935
ZACube-1 02 Mar 21:10:36 21:14:57 72° 76° (ENE) 21:19:14 437.345
50 SAT 02 Mar 21:12:02 21:15:21 26° 69° (ENE) 21:18:43 437.505
GONETS M04 02 Mar 21:14:15 21:22:24 48° 89° (E) 21:30:39
HUMSAT D 02 Mar 21:14:19 21:18:14 40° 72° (ENE) 21:22:09 437.325/437.525
UKube-1 02 Mar 21:18:24 21:22:45 83° 75° (ENE) 21:27:08 .
ESTCUBE 1 02 Mar 21:18:32 21:21:34 18° 65° (ENE) 21:24:44 437.505/2401.250
CUTE 1.7 + AOD 2 02 Mar 21:27:34 21:29:20 12° 272° (W) 21:30:54 437.475
UWE-3 02 Mar 21:29:47 21:34:11 58° 260° (W) 21:38:29 435.000/436.395/437.385
UNISAT 6 02 Mar 21:30:07 21:31:36 12° 88° (E) 21:33:20 437.425
DOVE 4 02 Mar 21:40:48 21:43:57 16° 271° (W) 21:46:49 437.250
DELFI C3 02 Mar 21:41:16 21:44:53 31° 264° (W) 21:48:30 145.870
RS-15 02 Mar 21:45:54 21:54:03 27° 104° (ESE) 22:02:43 29.354- 29.394
CINEMA 3 02 Mar 21:48:02 21:51:39 21° 268° (W) 21:55:03 145.822/145.860
QB50P1 02 Mar 21:50:41 21:51:10 10° 87° (E) 21:51:57 145.935-145.965
QB50P2 02 Mar 21:53:40 21:55:06 12° 88° (E) 21:56:44 145.880/145.840
TIGRISAT 02 Mar 21:53:48 21:57:01 21° 93° (E) 22:00:22 435.000
Oscar 11 02 Mar 22:02:37 22:05:29 17° 270° (W) 22:08:13 145.826/435.025
ANTELSAT 02 Mar 22:07:00 22:10:46 30° 96° (E) 22:14:38 437.575/2403.000
DUCHIFAT 1 02 Mar 22:07:45 22:10:22 16° 91° (E) 22:13:07 145.980
CUBEBUG 2 02 Mar 22:08:40 22:12:04 20° 268° (W) 22:15:18 437.445
DANDE 02 Mar 22:25:14 22:26:43 11° 90° (E) 22:28:33 436.750
DX 1 02 Mar 22:26:31 22:29:42 19° 268° (W) 22:32:44 434.975-435.025
POLYITAN 1 02 Mar 22:27:16 22:30:53 27° 95° (E) 22:34:32 437.675
POPSAT HIP 1 02 Mar 22:27:46 22:31:23 27° 95° (E) 22:35:01 437.405
AISAT 02 Mar 22:28:36 22:32:53 41° 262° (W) 22:37:09 437.250
VERMONT LUNAR 02 Mar 22:30:18 22:32:43 17° 207° (SSW) 22:35:05 437.305
CUBEBUG 1 02 Mar 22:31:38 22:36:05 90° 42° (NE) 22:40:34 437.445
PHONESAT 2.4 02 Mar 22:33:48 22:36:58 28° 201° (SSW) 22:40:07 2401.200-2431.200
VELOX 1 02 Mar 22:38:19 22:42:26 34° 264° (W) 22:46:31 145.980
PCSat 02 Mar 22:39:16 22:42:53 17° 322° (NW) 22:46:23 145.827
50 SAT 02 Mar 22:47:00 22:50:20 25° 265° (W) 22:53:36 437.505
FUNcube-1 02 Mar 22:49:09 22:50:35 11° 272° (W) 22:51:46 145.935
NANOSAT C BR1 02 Mar 22:50:36 22:54:43 49° 99° (E) 22:58:48 145.865
ZACube-1 02 Mar 22:50:47 22:51:54 11° 273° (W) 22:52:44 437.345
HUMSAT D 02 Mar 22:51:20 22:54:14 18° 269° (W) 22:57:01 437.325/437.525
CUSAT 1 02 Mar 22:51:36 22:56:13 23° 95° (E) 23:00:09 437.405
ESTCUBE 1 02 Mar 22:53:44 22:58:07 49° 261° (W) 23:02:33 437.505/2401.250
SPROUT 02 Mar 23:03:49 23:08:00 50° 73° (ENE) 23:12:14 437.525
UNISAT 6 02 Mar 23:04:40 23:08:55 64° 286° (WNW) 23:13:12 437.425
TISAT 1 02 Mar 23:07:30 23:11:39 50° 73° (ENE) 23:15:50 437.305
GONETS M04 02 Mar 23:11:27 23:19:29 39° 290° (WNW) 23:27:26
QB50P1 02 Mar 23:23:25 23:27:39 70° 285° (WNW) 23:31:50 145.935-145.965
ITUPSAT 1 02 Mar 23:24:47 23:27:21 15° 62° (ENE) 23:30:08 437.325
QB50P2 02 Mar 23:27:19 23:31:32 63° 286° (WNW) 23:35:41 145.880/145.840
TIGRISAT 02 Mar 23:30:01 23:33:55 35° 290° (WNW) 23:37:50 435.000
BUGSAT 1 02 Mar 23:33:25 23:37:35 73° 285° (WNW) 23:41:40 437.445
DUCHIFAT 1 02 Mar 23:42:29 23:46:31 44° 288° (WNW) 23:50:29 145.980
ANTELSAT 02 Mar 23:43:57 23:47:32 25° 292° (WNW) 23:51:02 437.575/2403.000
RS-15 02 Mar 23:54:21 00:05:18 83° 306° (NW) 00:16:26 29.354- 29.394
DANDE 03 Mar 00:03:04 00:09:57 81° 100° (E) 00:15:05 436.750
POLYITAN 1 03 Mar 00:03:12 00:06:47 26° 292° (WNW) 00:10:17 437.675
POPSAT HIP 1 03 Mar 00:03:39 00:07:15 27° 291° (WNW) 00:10:45 437.405
Oscar 19 03 Mar 00:11:10 00:12:40 11° 86° (E) 00:14:28 437.125/150
SWISSCUBE 03 Mar 00:23:59 00:28:39 58° 72° (ENE) 00:33:23 437.505
NANOSAT C BR1 03 Mar 00:27:35 00:30:15 16° 295° (WNW) 00:32:46 145.865
BEESAT 3 03 Mar 00:28:16 00:30:54 16° 39° (NE) 00:33:37 437.485
BEESAT 03 Mar 00:32:32 00:37:15 65° 74° (ENE) 00:42:01 436.000
CUSAT 1 03 Mar 00:33:06 00:39:04 45° 283° (WNW) 00:43:34 437.405
SPROUT 03 Mar 00:41:48 00:44:27 15° 270° (W) 00:46:58 437.525
KKS-1 03 Mar 00:43:18 00:46:08 17° 64° (ENE) 00:49:07 437.445
TISAT 1 03 Mar 00:45:16 00:47:49 15° 270° (W) 00:50:13 437.305
STARS 03 Mar 00:50:13 00:52:14 13° 62° (ENE) 00:54:27 437.465
AIST 2 03 Mar 00:52:49 00:54:31 12° 34° (NNE) 00:56:23 435.215
BEESAT 2 03 Mar 00:53:34 00:56:53 23° 43° (NE) 01:00:14 435.950
SO-50 03 Mar 00:57:39 01:01:40 31° 115° (ESE) 01:05:53 436.795
ITUPSAT 1 03 Mar 00:59:59 01:04:45 70° 259° (WSW) 01:09:34 437.325
YUBILEINY 03 Mar 01:15:19 01:20:40 18° 56° (ENE) 01:26:28 435.215
Gurwin Techsat 1B 03 Mar 01:21:26 01:24:07 14° 87° (E) 01:27:04 435.225
ITAMSAT 1 03 Mar 01:46:44 01:51:22 32° 95° (E) 01:56:02 435.822/435.867
Oscar 19 03 Mar 01:47:39 01:52:49 86° 288° (WNW) 01:57:58 437.125/150
DANDE 03 Mar 01:50:02 01:53:33 15° 292° (WNW) 01:56:22 436.750
SWISSCUBE 03 Mar 02:03:58 02:06:59 16° 271° (W) 02:09:48 437.505
BEESAT 3 03 Mar 02:05:22 02:09:30 70° 239° (WSW) 02:13:33 437.485
RS-15 03 Mar 02:10:04 02:19:38 32° 334° (NNW) 02:29:18 29.354- 29.394
BEESAT 03 Mar 02:13:02 02:15:39 14° 272° (W) 02:18:03 436.000
KKS-1 03 Mar 02:18:04 02:22:27 52° 261° (W) 02:26:50 437.445
STARS 03 Mar 02:23:48 02:28:13 69° 258° (WSW) 02:32:39 437.465
AIST 2 03 Mar 02:29:43 02:34:00 70° 54° (NE) 02:38:11 435.215
BEESAT 2 03 Mar 02:31:19 02:35:17 43° 242° (WSW) 02:39:10 435.950
HORYU 2 03 Mar 02:36:08 02:39:04 18° 91° (E) 02:42:08 437.375
SO-50 03 Mar 02:37:53 02:42:10 35° 314° (NW) 02:46:35 436.795
M-CUBED/EXP-1 PRIME 03 Mar 02:59:05 03:02:13 40° 67° (ENE) 03:05:29 437.505
Gurwin Techsat 1B 03 Mar 02:59:27 03:04:47 75° 287° (WNW) 03:10:05 435.225
AUBIESAT-1 03 Mar 03:00:52 03:03:57 37° 67° (ENE) 03:07:12 437.475
YUBILEINY 03 Mar 03:10:23 03:19:18 80° 81° (E) 03:28:09 435.215
JAS-2 03 Mar 03:17:34 03:23:23 25° 89° (E) 03:29:40 435.910
ITAMSAT 1 03 Mar 03:26:11 03:30:53 34° 293° (WNW) 03:35:30 435.822/435.867
AO-7 03 Mar 03:26:13 03:33:35 35° 96° (E) 03:41:03 29.400- 29.500
Oscar 19 03 Mar 03:29:22 03:31:29 12° 301° (WNW) 03:33:21 437.125/150
MOZHAYETS 4 03 Mar 03:31:17 03:35:36 45° 72° (ENE) 03:40:00
PCSat 03 Mar 03:57:47 04:01:27 18° 39° (NE) 04:05:14 145.827
AIST 2 03 Mar 04:10:14 04:12:05 12° 251° (WSW) 04:13:45 435.215
HORYU 2 03 Mar 04:11:45 04:16:02 46° 288° (WNW) 04:20:16 437.375
RS-15 03 Mar 04:28:04 04:36:39 24° 8° (N) 04:45:34 29.354- 29.394
PRISM 03 Mar 04:32:10 04:34:41 16° 64° (ENE) 04:37:20 437.425
M-CUBED/EXP-1 PRIME 03 Mar 04:36:28 04:37:33 11° 266° (W) 04:38:28 437.505
AUBIESAT-1 03 Mar 04:37:44 04:39:10 12° 265° (W) 04:40:30 437.475
Gurwin Techsat 1B 03 Mar 04:42:18 04:43:57 11° 303° (WNW) 04:45:20 435.225
JAS-2 03 Mar 05:01:37 05:09:00 73° 287° (WNW) 05:16:49 435.910
YUBILEINY 03 Mar 05:08:44 05:15:14 23° 280° (W) 05:21:20 435.215
MOZHAYETS 4 03 Mar 05:09:52 05:13:08 19° 269° (W) 05:16:16
Cubesat XI-IV 03 Mar 05:16:48 05:20:23 18° 90° (E) 05:24:08 437.490
AO-7 03 Mar 05:18:43 05:26:45 55° 295° (WNW) 05:34:43 29.400- 29.500
CUTE-I 03 Mar 05:25:21 05:29:22 22° 91° (E) 05:33:31 437.470
CUBESAT XI-V 03 Mar 05:30:53 05:35:31 63° 75° (ENE) 05:40:12 437.345
